Curacao Island, Netherlands

8:48 AM AST on January 24, 2017 (GMT -0400)
Flamingo

Weather History for TNCB - November, 2011

Change the Weather History Date:

Sunday, November 13, 2011

  Actual Average Record
Temperature  
Mean Temperature 78 °F -  
Max Temperature 81 °F 86 °F 93 °F (2008)
Min Temperature 75 °F 78 °F 75 °F (2011)
Cooling Degree Days 13    
Growing Degree Days 28 (Base 50)    
Moisture  
Dew Point 76 °F    
Average Humidity 90    
Maximum Humidity 100    
Minimum Humidity 75    
Precipitation  
Precipitation 0.83 in - - ()
Sea Level Pressure  
Sea Level Pressure 29.87 in    
Wind  
Wind Speed 3 mph ()    
Max Wind Speed 9 mph    
Max Gust Speed -    
Visibility 8.8 miles    
Events Rain , Thunderstorm    
Averages and records for this station are not official NWS values.
T = Trace of Precipitation, MM = Missing Value Source: Averaged Metar Reports

Daily Weather History Graph

Daily Weather History Graph

Search for Another Location

Airport or City:

Trip Planner

Search our weather history database for the weather conditions in past years. The results will help you decide how hot, cold, wet, or windy it might be!

Date:

Astronomy

Nov. 13, 2011 Rise Set
Actual Time 6:29 AM AST 6:04 PM AST
Civil Twilight 6:07 AM AST 6:27 PM AST
Nautical Twilight 5:41 AM AST 6:52 PM AST
Astronomical Twilight 5:16 AM AST 7:18 PM AST
Moon 8:26 PM AST (11/13) 8:42 AM AST (11/13)
Length of Visible Light 12h 19m
Length of Day
11h 35m
Waning Gibbous, 93% of the Moon is Illuminated
Nov 13
Waning Gibbous
Nov 18
Last Quarter
Nov 25
New
Dec 2
First Quarter
Dec 10
Full

Hourly Weather History & Observations

Time (AST) Temp. Heat Index Dew Point Humidity Pressure Visibility Wind Dir Wind Speed Gust Speed Precip Events Conditions
12:00 AM 80.6 °F 86.2 °F 75.2 °F 84% 29.89 in - North - - N/A   Unknown
2:00 AM 81 °F - 74 °F 75%  in - Calm Calm - -   Clear
2:00 AM 80.6 °F 86.2 °F 75.2 °F 84% 29.86 in - North - - N/A   Unknown
3:00 AM 80.6 °F 86.2 °F 75.2 °F 84% 29.83 in - North - - N/A   Unknown
4:00 AM 80.6 °F 86.2 °F 75.2 °F 84% 29.83 in - North - - N/A   Unknown
5:00 AM 80.6 °F 85.4 °F 73.4 °F 79% 29.83 in - North - - N/A   Unknown
6:00 AM 78.8 °F - 75.2 °F 89% 29.86 in - North - - N/A   Unknown
7:00 AM 75.2 °F - 73.4 °F 94% 29.86 in - North - - N/A   Unknown
8:00 AM 77.0 °F - 75.2 °F 94% 29.89 in - North - - N/A   Unknown
9:00 AM 78.8 °F - 77.0 °F 94% 29.92 in 6.2 mi East 2.3 mph - N/A   Mostly Cloudy
10:00 AM 80.6 °F 88.1 °F 78.8 °F 94% 29.92 in 6.2 mi East 1.2 mph - N/A   Mostly Cloudy
11:00 AM 75 °F - 75 °F 99% 29.94 in 9 mi South 5.8 mph - - Rain Light Rain Showers
11:00 AM 75.2 °F - 75.2 °F 100% 29.92 in 6.2 mi South 5.8 mph - N/A   Mostly Cloudy
12:00 PM 77.0 °F - 77.0 °F 100% 29.92 in 6.2 mi South 2.3 mph - N/A Rain Light Rain Showers
1:00 PM 77.0 °F - 77.0 °F 100% 29.89 in 6.2 mi Calm Calm - N/A Rain Light Rain Showers
2:00 PM 77 °F - 77 °F 100% 29.86 in 19 mi 3.5 mph - - Thunderstorm Light Thunderstorm
2:00 PM 77.0 °F - 77.0 °F 100% 29.83 in 6.2 mi Variable 3.5 mph - N/A   Scattered Clouds
3:00 PM 78.8 °F - 78.8 °F 100% 29.83 in 6.2 mi ESE 8.1 mph - N/A Rain Light Rain
4:00 PM 80.6 °F 88.1 °F 78.8 °F 94% 29.80 in 6.2 mi East 5.8 mph - N/A   Scattered Clouds
5:00 PM 81 °F - 78 °F 86% 29.82 in 19 mi East 9.2 mph - -  
5:30 PM 82.4 °F 90.9 °F 77.0 °F 84% 29.80 in 6.2 mi East 9.2 mph - N/A   Scattered Clouds
6:00 PM 80.6 °F 87.1 °F 77.0 °F 89% 29.83 in 6.2 mi East 8.1 mph - N/A   Scattered Clouds
7:00 PM 80.6 °F 87.1 °F 77.0 °F 89% 29.83 in 6.2 mi East 6.9 mph - N/A   Scattered Clouds
8:00 PM 80 °F - 76 °F 85% 29.88 in 19 mi East 6.9 mph - -   Partly Cloudy
8:00 PM 80.6 °F 87.1 °F 77.0 °F 89% 29.86 in 6.2 mi East 6.9 mph - N/A   Scattered Clouds
9:00 PM 80.6 °F 86.2 °F 75.2 °F 84% 29.89 in - North - - N/A   Scattered Clouds
10:00 PM 80.6 °F 86.2 °F 75.2 °F 84% 29.89 in - North - - N/A   Scattered Clouds
11:00 PM 80 °F - 75 °F 81%  in - Calm Calm - -   Clear
11:00 PM 80.6 °F 86.2 °F 75.2 °F 84% 29.89 in - North - - N/A   Unknown